When you browse on this site, cookies collect data to enhance your experience and personalize the content and advertising you see.
Visit our Privacy Policy to learn more. By continuing to use the site, you agree to this use of cookies and data.
  • In Romania
  • List of Countries
  • For 7 days
  • Water Temperature
  • Satellite Maps
  • Weather Map
  • Weather Widgets
  • user-avatar
    Login

    Hourly Weather Buffalo

    Today, 21 April, Sunday

    Time Temperature Precipitation Wind Pressure Humidity
    00:00 +9°C° 0 mm 2 mps 739 mmHg 97%
    01:00 +8°C° 0 mm 2 mps 739 mmHg 97%
    02:00 +8°C° 0 mm 2 mps 740 mmHg 96%
    03:00 +8°C° 0 mm 3 mps 740 mmHg 96%
    04:00 +7°C° 0 mm 3 mps 741 mmHg 95%
    05:00 +7°C° 0 mm 3 mps 742 mmHg 94%
    06:00 +5°C° 0 mm 3 mps 742 mmHg 94%
    07:00 +5°C° 0 mm 3 mps 743 mmHg 93%
    08:00 +7°C° 0 mm 3 mps 744 mmHg 90%
    09:00 +8°C° 0 mm 3 mps 744 mmHg 88%
    10:00 +9°C° 0 mm 3 mps 745 mmHg 85%
    11:00 +10°C° 0 mm 3 mps 745 mmHg 81%
    12:00 +11°C° 0 mm 4 mps 745 mmHg 78%
    13:00 +12°C° 0 mm 4 mps 746 mmHg 74%
    14:00 +12°C° 0 mm 3 mps 746 mmHg 74%
    15:00 +12°C° 0 mm 3 mps 746 mmHg 74%
    16:00 +12°C° 0 mm 3 mps 747 mmHg 74%
    17:00 +10°C° 0 mm 3 mps 747 mmHg 78%
    18:00 +9°C° 0 mm 2 mps 747 mmHg 83%
    19:00 +8°C° 0 mm 2 mps 747 mmHg 88%
    20:00 +7°C° 0 mm 2 mps 748 mmHg 89%
    21:00 +8°C° 0 mm 1 mps 748 mmHg 90%
    22:00 +7°C° 0 mm 1 mps 749 mmHg 91%
    23:00 +7°C° 0 mm 1 mps 749 mmHg 92%

    Tomorrow, 22 April, Monday

    Time Temperature Precipitation Wind Pressure Humidity
    00:00 +7°C° 0 mm 1 mps 749 mmHg 92%
    01:00 +7°C° 0 mm 1 mps 749 mmHg 93%
    02:00 +7°C° 0 mm 1 mps 749 mmHg 94%
    03:00 +6°C° 0 mm 1 mps 749 mmHg 94%
    04:00 +6°C° 0 mm 1 mps 749 mmHg 95%
    05:00 +7°C° 0 mm 1 mps 749 mmHg 93%
    06:00 +8°C° 0 mm 1 mps 750 mmHg 92%
    07:00 +8°C° 0 mm 1 mps 750 mmHg 91%
    08:00 +10°C° 0 mm 1 mps 750 mmHg 86%
    09:00 +12°C° 0 mm 1 mps 750 mmHg 81%
    10:00 +14°C° 0 mm 1 mps 750 mmHg 75%
    11:00 +16°C° 0 mm 1 mps 750 mmHg 72%
    12:00 +18°C° 0 mm 1 mps 750 mmHg 68%
    13:00 +19°C° 0 mm 1 mps 749 mmHg 64%
    14:00 +19°C° 0 mm 1 mps 749 mmHg 64%
    15:00 +18°C° 0 mm 2 mps 749 mmHg 64%
    16:00 +18°C° 0 mm 2 mps 748 mmHg 63%
    17:00 +17°C° 0 mm 2 mps 748 mmHg 69%
    18:00 +15°C° 0 mm 1 mps 748 mmHg 75%
    19:00 +13°C° 0 mm 1 mps 748 mmHg 81%
    20:00 +13°C° 0 mm 1 mps 748 mmHg 82%
    21:00 +13°C° 0 mm 1 mps 748 mmHg 82%
    22:00 +12°C° 0 mm 1 mps 748 mmHg 83%
    23:00 +12°C° 0 mm 1 mps 748 mmHg 84%

    Day after tomorrow, 23 April, Tuesday

    Time Temperature Precipitation Wind Pressure Humidity
    00:00 +12°C° 0 mm 2 mps 748 mmHg 85%
    01:00 +10°C° 0 mm 2 mps 747 mmHg 86%
    02:00 +10°C° 0 mm 3 mps 747 mmHg 84%
    03:00 +10°C° 0 mm 3 mps 747 mmHg 83%
    04:00 +10°C° 0 mm 3 mps 746 mmHg 81%
    05:00 +11°C° 0 mm 3 mps 746 mmHg 80%
    06:00 +12°C° 0 mm 3 mps 746 mmHg 79%
    07:00 +12°C° 0 mm 4 mps 746 mmHg 77%
    08:00 +15°C° 0 mm 4 mps 745 mmHg 72%
    09:00 +17°C° 0 mm 5 mps 745 mmHg 66%
    10:00 +20°C° 0 mm 6 mps 744 mmHg 61%
    11:00 +20°C° 0.1 mm 6 mps 743 mmHg 62%
    12:00 +21°C° 0.1 mm 6 mps 743 mmHg 63%
    13:00 +21°C° 0.1 mm 6 mps 742 mmHg 64%
    14:00 +20°C° 0.2 mm 6 mps 741 mmHg 69%
    15:00 +19°C° 0.2 mm 6 mps 740 mmHg 73%
    16:00 +19°C° 0.2 mm 6 mps 739 mmHg 77%
    17:00 +17°C° 0.4 mm 6 mps 739 mmHg 81%
    18:00 +16°C° 0.4 mm 7 mps 740 mmHg 85%
    19:00 +15°C° 0.4 mm 7 mps 740 mmHg 88%
    20:00 +13°C° 0 mm 6 mps 740 mmHg 88%
    21:00 +10°C° 0 mm 6 mps 740 mmHg 87%
    22:00 +9°C° 0 mm 6 mps 741 mmHg 87%
    23:00 +8°C° 0 mm 6 mps 741 mmHg 87%

    24 April, Wednesday

    Time Temperature Precipitation Wind Pressure Humidity
    00:00 +7°C° 0 mm 5 mps 742 mmHg 86%
    01:00 +6°C° 0 mm 5 mps 742 mmHg 86%
    02:00 +6°C° 0 mm 5 mps 743 mmHg 85%
    03:00 +5°C° 0 mm 5 mps 743 mmHg 84%
    04:00 +5°C° 0 mm 5 mps 743 mmHg 83%
    05:00 +5°C° 0 mm 5 mps 744 mmHg 82%
    06:00 +5°C° 0 mm 5 mps 744 mmHg 81%
    07:00 +4°C° 0 mm 4 mps 745 mmHg 80%
    08:00 +5°C° 0 mm 4 mps 745 mmHg 76%
    09:00 +6°C° 0 mm 4 mps 745 mmHg 72%
    10:00 +7°C° 0 mm 4 mps 745 mmHg 68%
    11:00 +8°C° 0 mm 5 mps 745 mmHg 64%
    12:00 +10°C° 0 mm 5 mps 745 mmHg 60%
    13:00 +12°C° 0 mm 5 mps 745 mmHg 55%
    14:00 +12°C° 0 mm 5 mps 745 mmHg 55%
    15:00 +13°C° 0 mm 4 mps 745 mmHg 54%
    16:00 +13°C° 0 mm 4 mps 745 mmHg 54%
    17:00 +11°C° 0 mm 3 mps 745 mmHg 59%
    18:00 +10°C° 0 mm 3 mps 746 mmHg 65%
    19:00 +8°C° 0 mm 2 mps 746 mmHg 70%
    20:00 +8°C° 0 mm 1 mps 746 mmHg 72%
    21:00 +8°C° 0 mm 1 mps 747 mmHg 74%
    22:00 +7°C° 0 mm 1 mps 747 mmHg 76%
    23:00 +7°C° 0 mm 1 mps 747 mmHg 78%

    25 April, Thursday

    Time Temperature Precipitation Wind Pressure Humidity
    00:00 +5°C° 0 mm 0 mps 747 mmHg 80%
    01:00 +5°C° 0 mm 0 mps 747 mmHg 82%
    02:00 +6°C° 0 mm 1 mps 747 mmHg 84%
    03:00 +6°C° 0 mm 1 mps 747 mmHg 85%
    04:00 +5°C° 0 mm 1 mps 747 mmHg 86%
    05:00 +6°C° 0 mm 1 mps 747 mmHg 83%
    06:00 +7°C° 0 mm 1 mps 747 mmHg 80%
    07:00 +7°C° 0 mm 1 mps 748 mmHg 77%
    08:00 +9°C° 0 mm 1 mps 748 mmHg 73%
    09:00 +10°C° 0 mm 1 mps 747 mmHg 68%
    10:00 +12°C° 0 mm 2 mps 747 mmHg 63%
    11:00 +13°C° 0 mm 1 mps 747 mmHg 59%
    12:00 +15°C° 0 mm 1 mps 746 mmHg 56%
    13:00 +16°C° 0 mm 1 mps 746 mmHg 53%
    14:00 +16°C° 0 mm 1 mps 746 mmHg 52%
    15:00 +18°C° 0 mm 1 mps 745 mmHg 51%
    16:00 +18°C° 0 mm 1 mps 745 mmHg 50%
    17:00 +16°C° 0 mm 2 mps 745 mmHg 57%
    18:00 +14°C° 0 mm 2 mps 745 mmHg 65%
    19:00 +11°C° 0 mm 3 mps 744 mmHg 72%
    20:00 +11°C° 0 mm 3 mps 744 mmHg 72%
    21:00 +12°C° 0 mm 2 mps 744 mmHg 71%
    22:00 +10°C° 0 mm 2 mps 745 mmHg 70%
    23:00 +10°C° 0 mm 2 mps 744 mmHg 71%

    26 April, Friday

    Time Temperature Precipitation Wind Pressure Humidity
    00:00 +11°C° 0 mm 1 mps 744 mmHg 72%
    01:00 +11°C° 0 mm 1 mps 743 mmHg 73%
    02:00 +10°C° 0.2 mm 2 mps 743 mmHg 77%
    03:00 +9°C° 0.2 mm 2 mps 743 mmHg 80%
    04:00 +9°C° 0.2 mm 3 mps 742 mmHg 84%
    05:00 +8°C° 0.9 mm 3 mps 743 mmHg 86%
    06:00 +8°C° 0.9 mm 3 mps 743 mmHg 88%
    07:00 +7°C° 0.9 mm 3 mps 743 mmHg 91%
    08:00 +9°C° 0 mm 3 mps 744 mmHg 85%
    09:00 +10°C° 0 mm 3 mps 744 mmHg 79%
    10:00 +12°C° 0 mm 3 mps 744 mmHg 74%
    11:00 +13°C° 0 mm 3 mps 744 mmHg 68%
    12:00 +14°C° 0 mm 3 mps 745 mmHg 62%
    13:00 +16°C° 0 mm 3 mps 745 mmHg 56%
    14:00 +16°C° 0 mm 3 mps 745 mmHg 56%
    15:00 +16°C° 0 mm 3 mps 745 mmHg 56%
    16:00 +17°C° 0 mm 4 mps 745 mmHg 56%
    17:00 +14°C° 0 mm 3 mps 745 mmHg 62%
    18:00 +12°C° 0 mm 3 mps 745 mmHg 68%
    19:00 +11°C° 0 mm 3 mps 746 mmHg 75%
    20:00 +10°C° 0 mm 3 mps 746 mmHg 69%
    21:00 +10°C° 0 mm 3 mps 747 mmHg 64%
    22:00 +8°C° 0 mm 4 mps 747 mmHg 59%
    23:00 +8°C° 0 mm 3 mps 748 mmHg 57%
    Show more